Wind_Speed
42 42 41 41 41 41 41 41 40 39 38 38 38 37 37 37 35 34 32 32 31 31 29 28 26 24 23 22 21 19 18 16 16 14 12 14 15 15 16 18 21 27 31 35 38 42 44 45 45 44 44 43 43 43 43 43 42 42 41 41 41 41 39 38 38 39 38 37 36 35 33 31 30 29 28 28 26 24 26 27 26 26 30 37 41 42 42 40
44 44 43 43 43 43 43 43 42 41 41 40 40 39 39 39 38 37 35 34 34 33 32 31 29 28 26 25 24 22 21 20 19 17 15 17 16 14 15 15 17 21 25 29 33 37 40 43 45 45 46 45 45 45 44 44 44 43 43 43 43 43 42 41 40 40 40 39 38 37 36 34 33 31 30 30 27 26 28 31 31 32 37 42 42 41 40 36
46 45 45 45 45 45 45 45 45 44 43 43 42 41 41 41 40 40 39 37 37 36 36 34 32 31 30 28 27 26 24 23 22 20 18 18 18 17 17 16 16 18 21 23 27 31 34 37 41 44 45 46 47 46 46 46 46 45 45 45 45 45 44 43 41 41 42 41 40 39 38 37 36 34 32 31 30 29 30 33 34 37 41 42 41 39 36 31
47 47 47 47 47 47 47 47 47 47 46 45 45 44 43 43 43 42 42 41 39 39 38 37 36 34 32 32 31 29 27 25 26 24 21 20 20 20 19 18 18 19 19 19 21 24 27 31 35 38 41 44 45 46 47 46 46 46 46 45 45 45 45 44 42 41 42 42 42 41 40 39 38 36 35 34 32 32 33 34 36 39 41 39 38 35 32 28
49 49 49 49 49 50 50 50 49 49 49 48 47 46 46 45 45 44 44 43 42 42 41 40 39 37 35 34 34 33 31 28 29 29 25 23 23 23 22 20 20 20 20 19 19 21 22 25 28 31 35 38 40 42 43 43 44 45 44 44 43 43 43 43 42 42 42 42 42 42 41 41 40 39 38 37 35 34 34 34 36 38 37 36 34 31 28 25
51 51 52 52 52 52 52 52 52 51 51 51 50 49 49 48 47 47 46 46 45 45 44 43 42 40 39 37 36 35 34 32 33 32 28 26 27 26 26 24 22 22 21 20 20 21 21 21 23 25 28 32 34 37 38 39 40 41 41 41 41 41 42 42 42 42 42 42 42 42 42 41 41 40 39 38 36 34 33 33 34 34 33 32 30 28 25 22
53 54 54 54 55 55 54 54 54 54 53 53 53 52 51 51 50 49 49 49 48 47 47 46 45 44 42 40 39 38 37 36 36 36 32 29 30 30 29 27 25 25 24 22 22 24 22 21 21 20 22 25 27 30 33 34 36 37 37 38 38 39 39 40 40 41 41 41 41 41 41 41 41 40 39 37 35 33 32 31 30 30 29 28 27 25 22 19
56 57 57 57 57 57 57 57 57 57 56 56 56 55 54 54 53 52 52 51 50 50 50 49 48 47 45 43 42 40 39 39 39 38 36 34 33 34 32 30 29 28 26 25 25 25 24 24 22 20 21 19 19 22 24 27 30 31 33 34 34 35 35 36 37 38 39 39 39 39 39 40 39 38 36 34 33 31 29 27 26 25 25 25 24 22 20 19
60 60 60 61 61 61 61 60 60 60 60 59 59 58 57 57 56 55 55 54 53 53 52 52 52 51 49 47 45 43 41 42 42 41 40 38 37 37 35 34 32 30 29 28 28 28 28 26 22 21 20 17 18 20 20 21 22 23 25 27 29 30 31 32 32 34 35 36 36 37 37 37 36 34 33 31 29 26 24 22 22 22 22 22 21 19 18 19
62 62 63 63 63 63 63 63 63 63 62 62 61 61 60 59 59 58 58 57 56 56 55 55 54 54 53 51 49 46 44 45 44 44 43 42 41 40 38 37 36 34 32 32 31 31 30 26 24 23 21 20 22 22 21 19 17 18 19 20 22 23 24 26 27 29 31 32 33 34 34 33 32 30 29 27 24 21 20 20 21 20 20 20 19 17 17 18
61 62 62 63 63 63 64 64 64 64 64 64 63 63 62 61 61 61 60 60 59 59 58 57 57 57 56 55 53 48 47 47 47 47 47 45 44 43 40 39 39 38 36 35 35 33 31 29 26 26 25 26 25 25 24 18 17 18 17 18 19 19 19 20 21 23 25 27 29 29 29 28 28 26 25 23 21 19 19 19 20 20 19 19 18 16 16 17
60 61 61 62 62 63 63 64 64 64 65 64 64 64 63 63 63 63 62 62 62 61 61 60 59 59 59 59 56 50 49 51 50 50 50 47 45 45 43 42 41 41 40 39 37 36 34 32 30 30 30 29 27 28 26 20 19 20 17 18 19 18 18 17 17 18 20 23 24 24 24 24 24 23 20 20 19 19 19 19 19 19 19 18 17 15 16 17
61 62 62 63 63 64 64 64 65 65 65 65 65 64 64 64 64 64 64 64 64 63 63 62 62 61 62 63 58 52 53 54 54 53 51 48 46 47 46 45 44 44 44 43 41 38 38 36 34 34 32 30 30 31 30 23 21 21 20 20 20 20 19 17 16 16 17 19 20 21 20 20 21 19 17 18 19 19 19 19 19 20 19 17 15 15 15 16
65 65 65 65 66 66 66 66 66 66 66 66 66 65 65 65 65 66 66 66 65 65 65 64 64 63 64 66 61 55 56 56 56 55 52 50 49 49 50 48 47 47 47 45 44 42 40 39 39 37 34 34 34 33 32 27 24 25 24 22 22 23 20 17 17 15 15 17 18 18 18 18 18 17 17 18 19 19 20 20 20 20 18 15 13 14 15 15
69 69 69 69 69 70 70 70 69 69 70 69 68 67 67 67 67 67 68 68 67 66 66 66 66 65 66 68 63 59 60 59 57 56 55 53 52 52 53 52 50 50 50 48 46 45 44 42 42 41 39 38 35 33 33 31 29 28 27 27 26 25 20 18 18 17 15 15 17 18 18 19 19 18 18 19 20 20 20 21 20 18 17 15 13 13 14 14
73 73 73 73 73 74 75 74 74 74 74 73 72 70 70 70 69 70 70 70 69 68 67 67 67 67 68 70 67 62 61 61 59 57 57 57 56 55 54 54 54 53 53 51 49 47 46 45 46 45 43 40 36 37 37 34 32 32 32 33 30 26 22 21 21 18 16 17 18 19 20 20 20 20 20 20 21 20 21 21 19 17 17 15 13 13 13 13
74 75 76 76 77 77 78 79 79 78 78 78 77 75 74 74 73 73 74 73 71 69 69 69 68 69 70 72 70 66 63 62 61 60 60 61 59 57 56 57 57 56 54 53 50 48 48 48 49 47 45 43 41 41 38 35 37 38 39 38 34 29 26 24 23 21 18 20 20 19 20 21 21 23 23 22 22 21 20 20 18 17 16 15 13 12 12 13
74 75 76 77 77 78 80 80 81 82 83 82 82 81 79 78 77 78 79 77 74 72 71 71 70 71 72 74 72 69 65 63 63 64 64 65 62 60 59 59 58 57 55 53 52 51 50 51 51 49 47 46 45 44 42 42 44 43 42 41 36 31 29 27 27 23 21 22 21 20 22 22 23 24 23 22 22 21 20 19 18 17 17 15 12 12 12 12
72 74 76 77 78 79 80 81 82 83 84 85 85 85 84 84 82 83 84 82 78 76 74 73 73 73 74 75 74 71 68 66 65 66 67 68 66 62 61 61 59 58 56 54 55 54 53 53 51 49 49 50 51 51 50 49 47 44 43 41 37 34 31 30 29 25 24 24 23 22 23 23 23 24 23 22 21 20 20 18 18 18 17 14 12 13 12 11
65 67 70 73 75 77 80 81 82 84 85 86 86 86 86 87 87 88 90 88 83 81 79 77 76 76 77 77 75 72 71 69 67 68 70 71 69 66 64 62 60 59 57 57 58 57 56 53 50 51 54 56 56 54 53 52 48 45 44 43 41 38 36 34 31 28 27 27 26 25 23 23 25 25 23 22 20 20 19 17 18 19 16 14 13 13 12 11
60 61 64 66 68 70 74 77 80 83 86 87 88 88 88 88 88 90 93 93 89 86 84 82 80 80 80 80 77 73 73 72 70 70 72 73 72 69 66 64 62 61 61 62 61 59 56 51 51 56 60 59 57 55 55 53 51 48 47 46 44 42 41 39 35 32 31 30 30 28 24 24 28 26 23 22 21 19 18 18 19 19 16 14 14 13 12 11
62 63 64 66 66 66 69 71 75 78 83 86 88 90 90 90 90 91 93 95 94 91 89 88 86 84 83 83 81 77 75 75 75 74 74 74 73 71 70 67 64 64 66 65 62 59 54 51 57 63 63 60 58 57 56 55 54 51 50 49 47 46 46 43 39 37 34 34 35 32 28 28 29 28 25 24 22 20 19 19 19 19 17 15 14 14 13 12
67 67 69 70 70 69 70 71 72 74 78 83 87 89 91 92 93 93 94 96 96 93 93 92 91 89 87 86 85 81 78 78 80 79 77 75 75 75 73 70 67 68 69 66 63 60 55 58 65 66 63 61 60 59 58 57 55 53 52 51 50 50 49 47 45 41 38 39 40 36 32 30 29 27 27 26 24 22 21 20 20 19 17 16 15 14 13 12
71 72 72 74 75 74 74 75 76 76 76 80 85 88 91 93 94 95 95 97 97 96 95 95 94 93 92 90 88 86 83 82 84 84 81 78 78 78 76 74 72 71 70 68 66 63 60 66 69 65 63 64 62 61 59 57 56 55 54 54 55 54 53 53 50 44 42 43 42 38 33 29 27 27 29 30 26 23 23 22 21 19 18 17 16 15 14 13
75 75 75 76 78 78 78 79 80 80 79 80 83 87 90 92 94 96 97 98 99 98 98 97 95 95 94 94 93 90 88 88 89 89 85 82 81 80 79 78 75 72 71 71 70 66 66 71 69 64 65 64 62 60 58 58 58 56 56 58 59 58 57 57 51 45 44 44 43 40 36 32 30 30 32 31 27 25 24 23 23 20 19 19 18 16 15 14
77 78 78 78 79 79 79 81 82 83 83 82 83 85 89 92 94 96 97 99 100 100 100 99 98 97 95 95 95 94 93 93 95 94 89 85 84 83 82 80 76 75 74 74 72 69 70 72 69 65 66 64 62 61 60 60 58 57 59 62 62 60 60 58 52 48 46 46 46 43 39 36 33 31 32 32 29 27 26 25 24 21 21 21 20 18 17 16
78 79 80 79 79 80 80 81 82 83 84 84 84 84 87 90 93 95 95 97 99 100 100 100 100 100 98 97 96 96 97 97 99 98 92 88 87 85 83 81 79 78 78 78 74 69 71 73 69 66 67 65 62 61 62 62 60 60 64 64 62 61 61 60 55 50 49 51 49 43 41 40 36 32 33 33 31 29 28 28 27 24 24 24 22 21 19 18
79 80 81 81 80 80 81 81 80 81 82 83 83 83 83 86 90 93 94 94 96 99 101 101 102 102 101 100 97 97 98 99 101 102 97 93 91 89 86 84 83 82 82 81 74 70 74 75 70 70 70 66 63 64 67 65 63 66 68 65 63 64 64 62 57 53 54 54 49 44 43 42 38 35 34 33 31 31 31 31 30 28 27 25 23 22 21 19
79 80 81 80 80 80 80 79 79 79 80 80 82 82 82 82 84 87 90 92 92 95 99 102 102 103 103 103 101 99 98 99 102 104 101 98 96 94 90 88 88 87 86 83 77 76 79 77 75 75 71 67 67 70 71 67 66 71 70 66 66 66 66 62 57 56 56 52 48 46 45 42 40 38 36 32 31 34 36 35 33 32 29 26 24 24 23 22
77 77 78 78 78 78 77 77 77 77 78 78 80 81 81 81 81 83 85 89 90 91 96 100 102 103 104 104 103 102 101 100 102 104 104 102 101 98 95 94 94 92 89 86 81 81 81 80 80 76 72 70 72 75 73 69 71 74 72 68 68 68 67 62 58 58 55 48 46 48 46 43 42 40 37 34 35 38 39 37 35 33 31 28 26 25 25 24
74 74 75 74 74 75 74 74 74 75 76 77 78 79 80 80 81 81 81 84 86 88 92 97 99 102 104 105 104 104 104 103 104 105 106 105 104 102 101 101 100 96 93 89 84 84 84 83 81 76 73 74 75 76 74 72 75 75 72 70 69 70 68 63 59 58 51 44 46 48 46 43 41 40 40 40 40 40 40 39 37 35 33 30 27 26 25 25
71 71 72 71 71 72 72 72 73 73 74 75 75 77 78 78 79 80 80 81 81 83 88 93 97 99 101 105 106 106 106 105 106 107 107 107 107 107 107 107 105 100 95 91 87 87 87 85 83 80 78 78 78 78 76 74 75 74 72 71 70 70 68 62 58 55 48 44 47 49 46 42 41 42 43 43 43 42 42 42 39 37 34 31 28 27 26 26
69 69 70 70 70 70 70 70 71 71 71 72 72 73 75 76 76 77 79 79 79 79 83 88 94 97 98 102 105 107 108 107 108 109 109 109 110 110 109 108 105 101 98 95 93 92 91 90 88 84 81 80 78 78 76 74 74 73 72 70 69 68 65 60 56 54 49 47 50 51 48 44 42 44 45 45 46 45 43 43 41 38 35 32 30 28 27 27
67 68 70 70 70 69 69 68 67 68 68 68 68 68 69 71 73 74 76 77 77 78 79 82 89 94 96 98 101 106 109 109 110 111 111 111 112 111 109 107 107 105 102 100 99 97 95 93 90 85 81 80 79 78 77 76 76 75 73 71 69 67 63 59 58 56 53 52 55 54 49 44 45 48 49 49 48 45 44 43 41 39 37 34 32 29 27 27
65 67 70 70 70 68 66 64 63 63 64 64 64 63 64 66 68 70 71 73 75 76 77 78 83 89 92 95 98 102 107 109 112 113 111 112 113 113 111 110 109 107 106 105 104 101 97 94 90 87 85 85 82 80 80 80 78 75 75 73 67 64 64 64 64 62 59 59 59 54 48 46 49 53 52 50 47 45 44 43 40 39 38 36 34 30 29 28
65 66 68 69 68 66 62 60 59 58 59 60 60 59 60 61 62 65 66 68 70 73 75 76 79 83 88 91 95 99 104 107 111 114 113 112 113 114 114 113 111 109 108 108 107 103 98 94 92 92 91 88 84 81 82 81 77 76 76 69 63 66 70 69 66 64 62 61 58 53 50 49 51 54 53 49 47 45 44 42 40 39 39 38 36 33 31 30
66 65 66 67 65 62 59 57 56 55 55 55 55 56 57 57 58 59 61 63 64 68 71 73 75 78 82 87 92 97 102 105 109 114 115 114 113 114 115 115 114 111 109 109 108 105 99 95 95 94 91 88 86 86 86 83 81 80 75 68 69 75 75 69 66 65 62 59 57 55 52 50 51 53 53 49 47 46 44 42 40 40 40 40 39 37 34 32
66 64 63 64 62 59 55 54 54 53 53 53 52 52 53 54 54 55 57 59 60 63 66 68 70 74 77 83 88 94 100 103 107 112 115 115 114 114 115 116 116 114 111 109 107 104 99 97 98 96 91 91 91 92 91 88 85 81 76 74 78 79 73 68 66 63 60 58 58 57 54 51 52 54 54 51 49 48 46 44 42 41 41 42 42 40 37 35
65 61 60 59 57 54 52 50 50 50 51 51 50 50 51 52 52 51 54 55 56 59 62 62 64 69 73 79 85 91 97 102 105 110 113 115 115 115 114 116 116 115 113 110 106 103 99 98 100 99 96 95 97 96 93 88 85 82 80 81 82 78 73 71 68 65 62 61 60 59 57 53 53 57 58 54 52 51 48 46 44 43 43 45 45 43 40 37
63 59 58 56 53 50 48 48 48 47 48 48 47 47 48 50 50 50 51 53 53 55 57 57 59 63 68 75 81 87 94 99 104 108 112 113 114 114 115 115 116 115 114 111 107 103 100 99 101 101 99 99 100 97 90 86 84 83 82 81 79 76 74 73 71 69 66 63 62 62 58 54 56 61 60 57 54 53 50 47 46 44 44 45 45 44 42 39
61 58 55 53 51 49 47 46 47 47 46 46 45 45 46 47 48 48 48 49 51 54 54 53 54 58 64 70 77 83 90 96 102 107 110 111 112 114 115 116 115 114 113 111 108 105 101 100 101 103 101 100 100 96 90 88 87 85 83 81 79 77 76 76 72 68 66 63 62 62 58 57 61 64 62 58 56 53 50 48 46 44 44 45 46 45 44 42
61 56 52 50 49 48 47 46 47 47 46 44 43 43 43 44 45 46 46 47 49 52 52 50 49 54 60 66 72 78 85 93 99 105 109 110 111 112 113 115 115 114 112 110 108 106 104 101 102 103 101 99 99 96 92 91 90 88 86 84 83 82 80 77 70 66 65 63 62 61 59 60 63 63 61 58 56 53 51 48 46 45 45 46 48 47 46 46
60 55 49 47 47 46 47 47 47 47 46 44 43 41 40 40 41 42 43 45 47 49 50 48 47 50 56 62 67 73 81 88 95 102 107 109 110 110 111 113 114 113 111 110 108 106 104 103 103 103 101 99 99 98 96 94 91 90 88 87 86 84 80 76 71 69 70 67 65 62 61 61 62 60 59 58 56 55 53 49 47 47 47 49 50 49 49 48
57 52 47 46 45 45 46 48 48 47 46 44 43 42 41 39 38 39 40 41 44 47 47 45 45 48 53 59 64 68 75 84 91 97 103 106 108 109 110 111 112 112 111 110 109 105 104 103 104 105 103 101 102 102 100 97 95 95 92 89 87 83 80 78 76 76 75 71 68 66 65 65 63 61 61 60 58 56 53 50 48 48 50 51 51 52 52 50
51 48 46 46 45 44 44 45 47 48 46 44 42 41 41 39 38 38 38 38 40 44 45 43 43 46 51 56 60 64 71 78 86 93 99 103 106 108 108 109 109 110 110 110 109 105 103 102 103 106 106 104 104 103 101 100 99 97 94 90 87 84 82 80 79 78 74 71 70 68 67 68 66 64 64 62 60 58 54 51 49 50 51 52 53 53 53 51
46 43 44 46 46 45 44 43 43 44 44 44 42 40 39 39 37 36 36 37 37 39 41 41 41 45 50 54 57 62 67 74 81 88 94 99 103 105 107 107 107 108 109 109 109 106 102 100 102 105 107 105 103 101 99 98 97 95 92 89 87 85 83 81 80 77 73 72 71 68 69 70 67 65 64 62 60 59 56 54 51 51 52 53 54 54 54 52
44 40 40 42 45 46 44 42 41 42 42 42 42 40 38 37 36 35 34 35 35 36 37 38 40 44 48 51 54 59 65 71 77 83 88 94 99 102 105 106 106 106 107 108 108 106 103 100 100 103 105 105 103 100 98 96 94 92 90 88 87 86 85 82 79 75 74 73 71 69 71 70 66 65 64 62 60 58 56 55 53 53 53 55 55 55 53 51
42 40 38 39 42 44 45 43 42 41 41 40 40 40 38 36 35 34 33 32 33 34 34 35 37 41 45 48 51 56 62 68 72 77 83 89 94 99 102 104 104 104 105 106 106 105 103 101 99 101 103 103 102 101 99 97 95 93 91 89 87 86 84 81 77 76 75 74 71 71 73 70 67 67 65 63 61 58 55 54 53 53 54 56 56 54 53 50
41 40 39 39 40 42 44 44 42 41 40 39 38 38 37 36 34 33 32 31 30 31 33 33 33 37 42 46 49 53 59 64 68 72 77 83 89 94 99 102 103 103 103 103 104 104 104 101 99 99 101 100 101 102 101 99 97 94 92 89 87 85 83 80 78 77 76 74 74 75 74 71 69 67 65 63 60 56 55 53 52 52 54 55 54 53 51 49
39 40 39 40 40 42 43 44 43 42 40 39 37 36 36 35 34 31 30 30 29 29 30 31 31 33 38 43 48 52 57 61 64 67 72 78 84 89 95 99 100 100 100 101 102 103 103 101 99 98 99 98 100 103 103 100 98 94 90 87 86 84 83 82 81 80 77 76 77 77 74 72 70 67 64 62 58 55 54 53 52 53 54 54 53 52 50 47
39 39 39 39 40 41 42 44 44 42 40 38 37 36 34 34 33 30 27 28 28 27 27 28 29 30 35 41 47 51 54 57 60 63 67 73 78 84 90 96 98 98 98 100 101 102 102 101 98 98 98 97 99 102 102 101 99 94 89 88 87 86 85 85 83 81 78 77 77 77 75 72 70 67 64 61 57 54 53 52 52 53 54 53 53 51 49 47
39 39 39 39 40 41 42 43 44 43 41 38 36 36 35 33 32 30 26 24 26 26 24 25 27 29 34 40 45 49 51 53 56 60 64 69 74 79 85 91 95 96 97 98 100 101 101 100 98 98 98 97 99 101 101 101 99 94 91 90 90 89 87 85 82 79 78 78 78 77 75 72 68 65 63 59 56 54 52 52 53 53 53 53 51 50 49 47
Wind_Direction
254 253 252 253 254 255 255 255 256 257 258 259 259 260 260 260 260 259 258 258 258 256 254 253 251 247 245 245 246 246 244 240 239 238 242 243 238 238 237 233 233 231 229 230 232 233 235 235 235 235 235 235 236 238 239 240 241 241 243 245 247 248 249 250 250 250 251 253 256 259 260 261 262 263 263 266 274 270 264 275 282 286 297 305 311 310 309 309
254 253 253 253 254 255 256 255 255 256 257 257 258 259 259 259 259 259 258 257 258 257 256 253 252 250 248 246 245 244 245 245 242 234 236 244 243 241 242 238 238 237 232 230 231 233 234 236 237 237 237 236 237 238 239 241 242 243 244 245 247 248 249 250 250 250 251 253 254 257 260 262 263 264 265 266 272 269 265 273 278 286 298 305 308 308 307 308
255 254 254 254 254 255 256 256 256 256 256 257 257 258 258 258 258 258 258 257 257 257 257 255 253 251 250 248 245 244 243 246 246 235 230 241 246 242 240 238 239 241 239 234 233 233 233 235 237 238 238 238 238 239 239 240 242 244 245 247 249 250 251 250 249 248 250 253 254 256 258 261 263 264 265 267 269 267 267 273 279 288 297 302 304 305 306 307
255 255 255 255 255 256 256 256 256 256 257 257 257 258 258 258 257 257 257 257 256 256 257 256 254 252 251 250 247 245 243 245 247 239 231 237 241 242 240 237 239 240 241 240 238 236 235 234 235 237 238 239 239 240 240 241 242 243 244 246 249 251 251 250 249 247 248 251 254 255 257 259 262 263 265 267 269 269 271 277 282 288 294 299 301 302 304 305
257 257 257 257 257 257 257 256 256 256 257 257 258 258 258 258 257 257 256 256 256 256 256 256 255 253 252 251 249 247 244 245 248 241 235 238 239 240 241 238 238 239 239 240 241 241 238 236 236 236 238 239 239 240 240 241 242 242 243 243 245 247 249 249 248 247 247 249 251 253 255 257 259 261 264 266 269 272 276 279 283 288 293 296 298 300 303 305
259 259 259 259 259 258 258 257 256 257 257 257 258 258 258 258 258 257 256 256 255 255 256 256 255 254 252 251 250 248 246 246 247 242 237 242 242 238 239 238 238 239 239 239 241 242 239 237 237 236 238 238 239 240 240 240 240 241 242 242 243 244 245 247 248 248 248 249 250 251 253 255 256 259 262 265 269 274 278 280 283 288 291 293 295 299 303 305
260 260 260 259 259 259 258 257 257 257 257 257 258 258 258 258 258 257 257 256 255 255 255 255 255 254 252 251 250 249 248 247 247 244 238 241 245 240 236 236 238 238 238 238 241 242 241 240 237 236 238 238 239 241 241 241 241 241 242 242 243 244 246 247 249 250 250 250 251 252 253 254 255 258 261 265 269 273 277 280 283 286 288 290 292 296 300 304
259 259 259 259 258 258 258 257 257 257 257 257 257 257 257 257 257 257 257 256 255 255 254 254 254 254 253 251 250 249 249 248 247 245 241 239 243 243 237 234 236 237 238 236 238 241 242 240 238 237 238 238 240 243 242 242 242 242 242 242 242 243 245 247 248 250 251 251 252 252 253 254 256 259 262 265 269 272 274 277 279 282 285 288 291 295 299 305
259 259 259 259 258 258 258 257 257 256 256 256 256 257 256 256 257 257 256 256 256 255 254 254 254 253 253 251 249 248 248 248 246 245 243 240 241 241 239 236 234 235 238 237 237 239 241 241 240 242 243 241 241 242 240 240 242 243 243 242 242 242 242 244 246 248 250 250 251 251 252 254 256 258 261 264 267 269 268 269 273 279 283 286 290 296 301 305
261 261 261 260 260 259 258 258 257 257 256 256 256 256 256 255 255 256 256 256 255 255 254 254 254 253 252 251 248 246 247 247 246 245 244 241 240 239 239 239 236 234 235 237 238 238 239 241 242 243 243 240 238 239 237 237 241 244 244 244 243 242 241 242 242 244 246 248 248 249 251 253 255 256 256 259 261 260 259 263 270 277 281 284 289 295 302 306
263 263 262 262 261 261 260 259 259 258 257 257 256 256 256 255 254 254 254 254 254 254 254 253 253 253 252 251 247 245 247 246 245 245 243 241 241 240 238 239 239 237 235 236 238 238 239 239 240 241 240 239 239 240 238 232 237 241 243 247 246 244 243 241 241 241 243 245 247 249 250 250 251 249 249 251 253 251 253 260 268 274 278 282 288 297 303 307
264 264 264 263 263 262 261 261 260 259 258 258 257 257 256 255 255 254 254 253 253 253 253 252 252 252 252 251 247 245 246 246 245 244 242 240 241 242 239 238 239 240 238 235 235 237 239 237 237 239 239 240 241 243 241 229 231 238 239 244 248 247 245 243 242 242 242 243 245 246 246 245 244 242 242 245 247 248 253 259 266 272 277 282 291 300 306 307
266 265 265 264 264 263 262 262 261 260 259 258 258 257 256 256 255 254 253 253 252 252 252 252 252 251 252 251 248 246 247 246 245 243 240 240 241 243 242 239 238 239 239 236 234 235 237 237 236 237 238 241 242 243 243 231 226 232 232 236 243 246 245 243 243 243 242 242 243 243 240 239 240 237 234 240 245 250 257 261 267 272 275 283 294 302 305 306
267 266 266 265 265 265 264 263 262 261 260 259 258 257 257 256 255 254 253 252 251 251 251 251 251 251 252 251 248 247 247 245 244 243 241 240 241 242 242 240 238 237 237 237 236 234 236 237 237 237 237 238 240 242 245 239 230 230 231 230 233 240 242 242 244 241 239 239 241 240 235 234 236 234 231 238 246 253 259 263 267 271 275 283 293 298 301 303
268 267 266 266 265 265 265 264 263 262 261 260 259 258 257 256 256 255 253 252 251 250 250 250 250 250 251 251 248 247 247 246 244 244 243 240 239 240 240 239 239 238 236 235 235 234 234 236 237 236 234 236 239 242 244 243 237 234 234 231 228 232 235 238 241 238 235 235 234 233 231 230 231 233 234 239 247 253 258 263 267 271 276 283 290 294 297 299
268 268 267 266 265 265 265 264 263 263 262 261 260 259 258 257 256 255 254 252 251 250 250 250 250 250 251 251 249 246 247 247 246 245 245 242 238 238 240 240 239 238 237 235 234 234 234 236 236 235 235 235 237 239 241 242 242 239 237 234 229 226 225 229 235 234 232 232 230 229 230 232 231 233 236 241 248 251 257 262 266 270 275 282 287 289 294 296
269 268 267 266 266 265 264 264 263 263 262 261 260 259 258 257 256 256 255 253 251 250 249 249 249 249 250 251 249 247 246 246 247 247 247 244 240 237 238 240 239 238 237 236 235 235 236 237 236 235 235 235 234 237 239 239 239 238 237 235 230 225 221 223 229 228 228 232 232 232 235 236 234 235 237 241 247 250 255 260 266 269 273 278 283 285 290 297
270 269 268 267 266 265 264 264 263 262 261 261 260 259 258 257 256 256 255 253 252 250 250 249 249 249 249 250 249 247 245 245 246 247 247 245 241 238 237 239 239 238 238 237 237 236 236 236 236 235 235 236 235 234 233 233 235 237 238 238 234 230 225 223 227 226 225 231 233 233 237 239 238 240 241 242 245 250 254 260 265 267 270 275 278 281 288 297
272 271 270 269 267 266 265 264 263 262 261 260 259 258 257 257 256 256 255 254 252 251 250 249 248 248 248 249 248 247 245 244 244 245 246 246 242 239 238 238 238 238 238 238 238 236 235 235 236 236 236 235 233 232 231 233 236 238 241 243 241 237 232 228 228 226 226 230 231 230 235 241 242 242 243 244 245 250 254 259 263 265 268 272 274 278 285 293
273 272 271 270 268 267 266 265 264 262 262 260 259 258 257 256 255 255 255 254 252 251 250 248 248 248 248 248 247 246 246 244 242 243 245 245 244 241 238 237 237 238 238 238 238 236 235 236 237 237 236 234 233 233 233 234 236 237 240 243 243 240 237 232 230 228 228 230 230 227 229 239 243 241 242 246 246 249 254 258 262 264 267 271 273 278 281 287
276 275 274 272 270 268 267 265 264 263 262 261 259 258 256 255 254 254 254 253 251 250 249 248 247 247 248 248 246 245 246 245 243 242 242 244 243 242 240 237 236 237 237 236 236 234 234 236 238 237 236 234 233 233 234 234 234 235 237 239 241 241 239 235 231 229 229 232 232 227 225 234 242 241 240 244 245 247 252 255 258 262 265 268 273 278 280 282
279 278 277 276 273 271 270 267 265 263 261 260 259 258 256 255 253 253 253 253 251 249 248 248 247 246 246 247 247 244 244 245 245 242 241 242 242 242 241 238 235 236 236 235 234 234 233 235 237 236 235 234 233 233 233 234 233 234 235 237 239 240 239 237 233 229 228 232 233 228 223 229 238 241 240 242 244 246 249 251 255 261 265 267 272 275 279 282
281 280 279 278 276 274 273 271 268 265 262 260 258 256 255 254 253 252 251 252 251 249 247 246 245 245 245 245 246 245 243 243 244 243 240 240 240 240 240 238 235 234 235 235 234 233 232 233 235 234 234 234 233 233 233 233 233 233 234 236 237 238 238 238 234 230 229 232 233 230 225 228 236 243 245 244 244 246 248 251 255 261 266 268 271 273 278 282
282 281 281 280 278 276 275 274 271 268 264 261 258 256 254 252 251 251 250 250 250 249 248 246 244 243 243 243 244 244 243 242 242 242 241 239 239 239 239 238 236 234 235 234 233 231 230 233 234 234 234 234 233 233 233 234 233 233 233 234 235 235 236 236 234 231 231 234 236 235 230 229 235 242 245 245 245 248 251 253 255 259 265 267 269 272 274 276
282 282 281 280 280 278 278 276 273 271 267 263 258 255 253 251 250 249 248 248 248 248 247 246 244 242 242 242 242 242 242 242 242 241 240 239 239 238 238 238 236 236 235 234 232 230 230 233 235 233 234 234 234 234 234 234 234 233 233 234 234 233 234 236 234 232 234 236 238 238 234 230 231 238 244 245 246 248 251 253 254 256 262 264 266 268 270 271
283 283 282 281 280 280 279 278 275 272 270 266 261 256 253 251 249 248 247 246 247 247 246 246 245 243 241 240 240 241 241 241 242 241 239 239 239 238 238 238 237 236 236 234 232 231 232 234 234 233 234 234 234 234 234 234 234 234 233 233 233 233 234 236 235 232 234 236 237 236 236 233 232 237 245 248 247 248 250 252 254 254 257 259 261 264 266 268
286 286 285 283 282 282 281 279 276 273 270 267 264 259 255 251 249 248 247 245 245 246 245 245 244 244 242 240 238 239 240 240 241 242 240 239 239 239 239 238 238 237 236 235 233 232 234 235 234 233 234 234 233 234 234 233 232 232 232 233 233 234 234 235 234 232 232 235 235 235 237 237 234 235 243 247 248 250 251 251 251 251 251 253 256 260 262 264
289 289 287 286 285 283 282 279 276 273 271 268 266 263 259 254 251 249 247 246 245 245 244 244 243 243 242 241 238 237 237 239 240 241 240 239 238 238 238 238 238 237 237 236 233 232 233 234 233 232 232 232 232 232 232 231 231 232 233 232 233 233 233 233 232 231 232 234 236 235 237 238 236 235 239 245 249 251 250 248 248 247 247 249 252 257 259 261
291 289 287 286 285 283 281 279 277 275 272 270 267 265 262 258 254 250 248 246 244 244 244 243 242 241 241 240 239 236 235 236 238 240 239 238 237 237 236 236 236 236 236 235 233 231 232 232 231 231 230 229 229 230 231 229 231 233 233 233 234 234 234 234 233 232 233 234 236 236 237 238 238 237 239 242 245 246 245 244 245 247 247 248 249 253 257 258
290 288 287 285 284 282 280 279 277 276 273 271 268 266 264 261 257 253 249 246 244 242 243 243 241 240 240 239 238 237 235 234 236 238 238 237 236 236 235 235 234 234 234 234 232 232 233 233 232 230 229 228 229 230 230 228 230 233 233 233 234 236 236 235 234 234 235 235 236 237 237 237 238 239 238 237 238 241 245 246 246 248 249 249 249 251 255 258
290 289 287 286 285 283 282 280 278 276 274 272 269 267 265 262 260 257 252 247 243 241 241 241 241 239 238 238 237 236 235 234 234 235 237 237 235 234 234 233 233 232 232 232 232 232 233 234 234 232 230 229 229 231 231 229 230 233 233 233 235 236 237 236 234 236 236 235 236 237 237 236 237 238 236 235 237 241 247 248 247 248 249 250 251 251 254 257
293 292 290 289 287 286 284 282 280 277 275 272 270 268 266 264 261 259 255 250 246 241 239 239 239 238 237 237 236 235 234 233 233 233 234 235 235 233 232 232 233 232 231 231 231 231 233 233 233 232 230 230 230 231 231 230 231 233 234 234 235 237 238 237 237 237 236 234 236 236 235 234 235 236 236 236 239 241 244 248 248 249 251 252 252 252 254 256
296 295 294 292 291 289 287 285 282 280 277 274 271 269 267 265 262 259 256 253 249 244 240 238 238 237 236 235 235 234 234 233 232 232 231 233 234 234 233 232 233 232 232 231 230 229 230 231 232 230 230 230 230 231 231 231 232 233 234 234 236 238 239 239 238 238 235 234 235 234 232 231 233 236 236 236 238 240 243 248 250 251 252 253 252 252 254 256
299 298 297 295 294 292 290 288 286 283 280 276 273 269 267 265 262 259 256 254 251 247 242 238 236 235 234 234 233 233 233 232 232 231 230 231 232 233 233 232 231 231 230 230 230 229 229 230 231 231 231 231 231 231 231 231 231 231 232 232 233 235 237 237 236 235 232 232 234 233 230 231 234 237 237 236 239 241 243 247 251 253 254 254 253 252 253 255
301 301 300 299 297 295 293 291 288 285 281 278 275 271 268 265 262 259 257 254 251 248 244 240 237 234 232 231 232 232 232 231 231 231 229 229 230 232 232 231 230 229 229 229 229 229 229 229 230 230 230 230 230 230 231 231 230 231 232 232 232 234 235 234 233 232 230 231 233 233 231 231 235 237 238 238 240 242 244 247 251 254 255 255 254 252 250 251
303 303 303 301 299 298 296 294 289 285 282 279 276 273 270 266 264 261 258 255 251 249 245 241 237 234 231 229 229 230 231 230 230 231 230 228 228 230 231 231 230 229 228 228 228 228 227 228 229 230 229 229 229 229 231 231 231 232 233 233 233 234 234 232 232 231 231 232 235 234 232 232 236 240 241 240 241 242 244 247 249 252 254 254 253 251 248 248
306 306 306 304 302 301 299 295 291 288 284 281 278 275 271 268 265 263 260 256 253 250 246 242 238 235 231 228 226 227 229 229 229 230 229 228 227 228 229 230 230 229 227 227 228 227 226 226 228 230 231 231 230 230 230 230 230 230 231 230 231 232 232 232 233 232 232 233 235 235 233 234 238 242 243 242 242 243 244 246 247 249 252 253 252 250 247 246
308 309 308 306 304 302 300 296 293 290 287 284 281 278 275 271 267 264 261 257 254 251 248 244 240 236 232 229 226 225 226 227 227 229 229 228 226 226 227 229 230 229 228 227 227 227 225 225 227 228 228 230 231 230 230 229 228 229 229 228 230 231 232 233 234 234 234 235 236 236 234 234 238 242 243 242 241 242 242 243 244 246 249 250 250 249 246 244
311 311 310 307 305 303 300 297 294 291 288 286 283 281 278 275 271 267 263 259 255 251 248 244 241 237 233 229 226 224 224 225 226 227 228 227 226 225 226 227 228 228 228 226 225 225 224 224 226 226 226 227 230 230 230 230 229 229 228 229 230 231 231 232 232 232 232 231 233 235 233 233 237 241 242 241 241 241 241 242 243 244 246 249 250 250 248 245
313 314 312 309 306 304 302 299 296 293 290 288 286 283 279 276 272 268 265 262 258 253 249 244 240 237 233 230 227 224 223 223 224 225 227 227 226 225 224 225 227 228 227 226 225 224 222 222 224 225 225 226 229 230 230 231 232 231 231 232 233 233 234 234 233 232 232 231 231 233 233 232 235 239 241 241 241 242 242 242 243 243 245 249 250 251 250 248
315 316 315 313 310 308 306 304 301 299 296 293 290 286 281 278 275 270 266 263 259 256 251 245 239 236 233 230 227 225 223 222 223 224 225 226 226 224 224 224 225 226 227 226 224 223 221 221 223 225 224 225 228 229 228 229 230 231 231 232 233 233 234 234 234 235 236 235 235 236 235 233 235 238 240 241 242 242 242 243 243 244 245 247 249 250 249 249
317 318 319 316 314 313 311 308 306 303 300 297 293 288 283 279 276 273 268 264 260 256 253 247 240 235 233 231 228 225 224 222 222 223 224 225 225 224 223 223 223 223 225 225 224 222 220 219 221 224 224 224 226 227 226 227 229 230 230 230 231 231 232 233 233 234 236 235 236 237 236 235 236 238 240 241 242 242 242 242 243 244 244 245 247 247 248 248
319 320 321 318 316 316 314 312 309 307 305 303 299 294 288 282 277 272 269 265 261 257 253 249 242 236 233 231 228 225 224 223 221 222 223 224 224 224 223 222 222 221 222 224 223 221 220 219 220 222 223 223 224 225 225 225 227 229 229 230 231 231 232 232 231 231 232 231 231 232 233 234 236 238 240 241 242 243 243 243 243 244 245 246 246 247 247 247
321 322 322 320 319 320 319 317 315 312 310 308 304 300 296 290 282 275 269 265 262 259 255 249 243 237 233 231 229 225 223 223 222 221 222 223 223 223 223 222 221 220 220 221 222 221 219 217 218 221 222 221 222 223 223 222 224 226 227 228 230 231 231 231 230 230 230 230 230 230 230 232 233 234 236 238 239 241 242 242 242 243 244 245 245 246 246 245
322 324 324 322 321 322 322 321 319 317 315 311 307 303 300 295 288 280 273 266 261 258 256 251 243 238 234 231 229 225 223 223 222 221 221 221 222 222 222 222 221 219 218 219 220 220 218 216 217 220 221 221 221 222 222 222 223 224 225 226 228 229 230 231 231 232 233 232 232 232 233 234 234 234 236 237 237 239 239 239 238 239 241 242 243 244 245 245
325 326 326 324 324 324 324 323 321 319 318 315 310 306 302 297 291 284 278 271 264 258 255 251 244 238 234 230 227 225 223 222 222 221 220 220 221 221 221 222 220 219 217 217 217 218 217 215 215 219 221 222 222 223 223 224 224 224 224 225 226 227 228 229 230 231 232 233 233 233 234 235 235 235 237 238 238 239 238 238 236 236 238 240 241 243 244 245
326 327 328 326 325 325 324 325 325 323 322 319 314 310 306 300 294 288 281 275 269 262 255 250 244 239 235 232 227 224 223 222 221 221 220 220 220 219 220 220 220 218 217 216 215 215 215 214 213 216 220 221 222 223 223 224 224 223 224 224 226 227 227 228 229 230 231 232 233 233 234 236 236 236 237 237 238 238 239 238 237 236 236 237 240 241 243 245
328 327 328 328 327 328 328 329 329 328 326 323 318 314 309 304 298 292 285 278 272 267 259 250 243 239 236 233 229 225 223 223 221 219 219 219 219 218 218 219 219 218 216 214 213 213 213 212 212 214 218 219 221 222 222 223 223 222 222 223 224 226 227 227 228 229 231 231 232 233 234 235 235 235 236 237 237 237 238 238 237 237 236 237 238 240 242 244
329 328 330 331 331 332 332 332 332 331 329 326 322 317 312 307 301 296 290 282 274 268 262 253 243 237 234 232 229 225 223 223 221 219 218 218 218 217 217 218 218 217 215 213 212 211 211 211 210 213 216 217 219 220 221 221 222 221 221 221 223 224 226 226 227 228 229 230 231 231 232 233 234 235 236 237 236 236 236 236 236 236 236 236 237 238 240 241
330 330 332 335 335 336 335 335 334 334 332 330 325 320 315 310 305 299 293 286 277 268 262 256 246 237 233 230 227 224 222 221 221 219 218 217 217 216 216 217 217 216 214 212 210 209 209 209 209 210 213 215 217 218 219 220 221 221 220 221 222 223 224 224 225 225 226 227 230 231 232 233 233 234 235 236 236 235 235 234 233 234 235 235 236 236 237 238
332 333 336 339 339 338 338 337 336 336 335 333 329 324 319 315 309 304 296 288 280 271 262 256 248 237 231 228 226 225 222 219 218 218 217 217 216 216 215 216 216 214 212 210 209 207 207 206 206 208 211 213 215 217 218 219 219 219 219 219 220 221 222 223 223 223 224 225 228 230 231 232 233 233 234 234 234 233 233 232 232 233 234 234 234 234 235 235
334 336 338 341 341 341 341 340 338 338 338 337 335 330 325 320 315 309 301 290 281 274 264 255 247 237 230 227 225 224 223 218 216 215 216 216 216 215 215 215 214 213 210 208 207 206 205 204 204 206 209 212 214 216 216 217 217 217 217 218 219 220 221 222 223 223 224 224 226 228 230 230 231 232 233 233 233 232 231 231 231 232 234 234 234 234 234 234
Height
10942 10942 10943 10944 10944 10945 10945 10946 10946 10947 10948 10948 10949 10949 10950 10951 10951 10953 10953 10953 10953 10953 10954 10954 10955 10956 10956 10957 10957 10957 10958 10958 10958 10959 10959 10959 10958 10959 10959 10960 10960 10960 10962 10963 10964 10965 10966 10968 10969 10971 10973 10975 10976 10978 10979 10980 10982 10983 10984 10985 10985 10985 10987 10989 10990 10990 10991 10992 10992 10992 10994 10994 10995 10995 10995 10995 10995 10995 10994 10994 10992 10991 10990 10990 10989 10988 10986 10984
10938 10938 10939 10940 10940 10941 10941 10942 10942 10943 10944 10944 10945 10946 10946 10947 10948 10949 10950 10950 10950 10950 10951 10951 10952 10953 10953 10954 10955 10955 10956 10956 10956 10957 10958 10957 10957 10958 10958 10958 10958 10958 10959 10960 10961 10962 10963 10965 10966 10968 10969 10971 10973 10974 10976 10978 10979 10980 10981 10982 10982 10983 10985 10986 10988 10989 10988 10990 10990 10990 10991 10992 10992 10993 10993 10993 10993 10993 10993 10992 10991 10990 10989 10989 10988 10986 10985 10983
10933 10934 10935 10935 10936 10936 10937 10938 10938 10939 10939 10940 10941 10942 10943 10943 10944 10945 10946 10947 10947 10947 10947 10948 10949 10950 10950 10951 10952 10953 10953 10954 10954 10954 10956 10956 10956 10956 10956 10957 10957 10957 10957 10958 10958 10959 10960 10962 10963 10964 10966 10968 10969 10971 10972 10974 10976 10977 10979 10980 10980 10980 10982 10983 10985 10987 10987 10987 10988 10989 10989 10989 10990 10990 10991 10991 10992 10992 10991 10991 10990 10989 10989 10988 10987 10985 10983 10982
10929 10930 10930 10931 10931 10932 10933 10933 10934 10934 10935 10936 10937 10938 10939 10940 10940 10941 10941 10942 10943 10944 10944 10944 10945 10946 10947 10948 10948 10950 10951 10952 10951 10951 10954 10954 10954 10954 10954 10955 10955 10955 10955 10956 10956 10957 10957 10959 10960 10961 10962 10964 10966 10968 10969 10971 10972 10974 10976 10977 10977 10978 10978 10980 10982 10984 10985 10985 10985 10986 10987 10987 10987 10988 10989 10989 10990 10990 10990 10990 10989 10989 10988 10987 10986 10984 10982 10981
10925 10925 10926 10926 10927 10927 10928 10929 10930 10930 10931 10931 10933 10934 10935 10935 10936 10937 10937 10938 10939 10940 10940 10940 10941 10942 10943 10944 10945 10946 10947 10949 10948 10948 10951 10952 10952 10952 10952 10953 10953 10953 10954 10954 10955 10954 10955 10956 10957 10958 10959 10961 10963 10965 10966 10968 10969 10971 10972 10974 10975 10975 10975 10976 10979 10981 10982 10983 10983 10984 10984 10985 10985 10985 10987 10988 10988 10989 10989 10989 10989 10988 10987 10986 10985 10983 10981 10980
10920 10920 10921 10921 10922 10922 10923 10924 10925 10925 10926 10927 10928 10929 10930 10930 10931 10932 10933 10934 10935 10935 10936 10936 10937 10938 10939 10940 10941 10942 10944 10945 10944 10945 10948 10949 10949 10949 10950 10951 10951 10952 10952 10953 10953 10952 10953 10954 10954 10955 10956 10958 10960 10962 10963 10965 10966 10968 10969 10971 10972 10972 10972 10973 10975 10977 10979 10980 10980 10981 10982 10983 10983 10984 10985 10986 10987 10987 10987 10987 10988 10987 10986 10985 10983 10982 10981 10980
10915 10915 10916 10916 10916 10917 10918 10919 10919 10920 10921 10922 10923 10924 10924 10925 10926 10927 10928 10928 10930 10931 10931 10932 10933 10933 10934 10936 10937 10939 10940 10941 10940 10941 10944 10946 10945 10946 10947 10948 10949 10949 10950 10951 10951 10950 10951 10952 10952 10954 10954 10955 10957 10959 10960 10962 10963 10965 10966 10968 10970 10970 10971 10971 10972 10974 10976 10977 10978 10979 10980 10981 10981 10982 10983 10984 10985 10986 10986 10986 10986 10985 10984 10983 10982 10981 10980 10979
10909 10909 10910 10910 10911 10911 10912 10913 10913 10914 10915 10916 10917 10918 10919 10920 10920 10921 10922 10923 10924 10925 10926 10927 10928 10928 10929 10931 10933 10934 10936 10936 10936 10937 10940 10942 10942 10942 10944 10946 10947 10947 10948 10949 10949 10949 10949 10949 10951 10952 10952 10954 10956 10956 10958 10959 10960 10962 10964 10965 10967 10968 10969 10969 10970 10971 10972 10974 10975 10977 10978 10978 10980 10981 10982 10983 10983 10985 10985 10984 10984 10984 10983 10982 10981 10980 10979 10978
10903 10903 10903 10903 10904 10904 10905 10906 10906 10907 10908 10909 10910 10912 10913 10914 10914 10915 10916 10917 10918 10919 10920 10921 10922 10923 10924 10925 10927 10930 10931 10931 10931 10933 10935 10937 10937 10938 10940 10942 10943 10945 10945 10946 10947 10947 10946 10948 10950 10951 10951 10953 10953 10953 10955 10957 10958 10960 10961 10963 10964 10965 10966 10967 10968 10969 10969 10971 10973 10974 10975 10976 10978 10979 10980 10981 10982 10983 10983 10983 10983 10982 10982 10981 10980 10979 10978 10977
10896 10896 10896 10896 10897 10897 10898 10898 10899 10900 10901 10902 10903 10904 10906 10907 10908 10909 10910 10911 10912 10913 10914 10915 10916 10916 10917 10919 10921 10925 10926 10926 10927 10929 10930 10932 10933 10934 10937 10938 10940 10941 10943 10944 10944 10944 10945 10947 10949 10950 10950 10951 10950 10951 10952 10954 10957 10958 10959 10960 10961 10963 10964 10965 10966 10966 10967 10968 10970 10971 10972 10974 10976 10977 10978 10979 10981 10982 10982 10982 10982 10981 10981 10980 10980 10979 10978 10977
10889 10888 10888 10888 10889 10890 10890 10891 10891 10892 10893 10895 10896 10897 10899 10900 10901 10902 10903 10904 10905 10907 10907 10908 10909 10909 10910 10911 10913 10920 10922 10921 10922 10923 10924 10927 10929 10930 10933 10935 10936 10938 10939 10940 10941 10942 10943 10945 10947 10948 10948 10947 10948 10949 10950 10954 10955 10955 10957 10958 10959 10961 10962 10963 10963 10964 10965 10965 10967 10969 10971 10973 10974 10975 10977 10978 10979 10980 10981 10981 10981 10980 10980 10979 10979 10978 10977 10976
10882 10881 10881 10881 10881 10882 10882 10883 10883 10884 10885 10886 10888 10889 10891 10892 10894 10895 10896 10897 10898 10899 10900 10902 10902 10903 10904 10902 10906 10915 10916 10915 10916 10916 10918 10923 10925 10926 10928 10931 10932 10933 10934 10936 10938 10940 10941 10943 10945 10944 10945 10946 10947 10947 10948 10953 10954 10954 10956 10956 10957 10958 10960 10961 10962 10963 10963 10964 10965 10967 10970 10971 10972 10974 10975 10976 10977 10978 10979 10980 10980 10980 10980 10978 10978 10977 10976 10976
10874 10874 10874 10874 10874 10874 10874 10875 10875 10876 10877 10878 10880 10881 10883 10884 10885 10886 10887 10888 10889 10891 10892 10894 10895 10896 10897 10894 10900 10910 10910 10908 10909 10910 10914 10919 10922 10922 10923 10925 10928 10929 10929 10931 10934 10936 10938 10940 10941 10941 10943 10945 10945 10945 10946 10951 10953 10953 10954 10955 10955 10956 10958 10960 10961 10961 10962 10962 10963 10965 10968 10969 10970 10972 10974 10974 10975 10976 10977 10978 10979 10979 10979 10978 10977 10976 10976 10975
10866 10866 10866 10866 10866 10866 10865 10866 10867 10867 10868 10869 10871 10873 10875 10875 10877 10877 10878 10879 10881 10883 10885 10887 10888 10890 10890 10886 10894 10904 10902 10901 10903 10905 10910 10914 10916 10916 10917 10919 10921 10923 10924 10927 10930 10933 10934 10936 10937 10939 10941 10941 10941 10943 10944 10948 10951 10951 10952 10953 10954 10953 10956 10958 10959 10960 10961 10961 10962 10963 10965 10967 10969 10971 10973 10973 10974 10975 10975 10976 10977 10978 10978 10977 10976 10976 10975 10975
10857 10857 10858 10858 10858 10857 10856 10857 10858 10858 10859 10860 10862 10865 10866 10866 10867 10868 10868 10869 10872 10875 10877 10879 10881 10883 10882 10878 10887 10897 10894 10895 10898 10901 10904 10906 10909 10910 10910 10913 10915 10917 10919 10922 10925 10927 10930 10932 10933 10935 10936 10937 10940 10942 10942 10945 10947 10948 10949 10950 10951 10952 10954 10956 10957 10959 10960 10961 10962 10963 10964 10966 10968 10970 10972 10973 10973 10974 10974 10975 10976 10976 10977 10977 10976 10976 10975 10975
10847 10847 10847 10848 10848 10848 10846 10847 10848 10849 10849 10850 10852 10855 10856 10857 10858 10857 10857 10858 10862 10867 10869 10872 10874 10876 10874 10871 10878 10887 10889 10890 10892 10896 10897 10898 10902 10904 10906 10908 10909 10910 10912 10916 10920 10923 10926 10927 10927 10930 10933 10936 10939 10938 10939 10942 10944 10945 10945 10945 10948 10951 10953 10954 10955 10957 10959 10960 10961 10962 10963 10964 10967 10969 10971 10972 10972 10973 10973 10974 10975 10975 10975 10975 10975 10975 10975 10975
10836 10836 10836 10836 10837 10837 10836 10836 10837 10837 10838 10839 10842 10844 10845 10847 10848 10846 10845 10847 10853 10859 10861 10863 10865 10867 10865 10863 10868 10877 10883 10885 10886 10889 10889 10889 10894 10898 10901 10900 10901 10905 10908 10912 10917 10920 10921 10921 10923 10926 10929 10933 10934 10935 10937 10939 10938 10938 10938 10940 10945 10949 10951 10953 10953 10955 10958 10958 10959 10961 10962 10963 10965 10967 10969 10971 10971 10972 10972 10972 10973 10974 10974 10974 10974 10974 10974 10974
10826 10825 10825 10825 10826 10825 10824 10825 10825 10825 10826 10827 10830 10832 10834 10835 10837 10835 10831 10835 10844 10849 10852 10854 10856 10857 10855 10854 10858 10866 10875 10880 10880 10880 10879 10880 10885 10890 10893 10893 10896 10901 10904 10909 10911 10913 10915 10915 10918 10922 10926 10928 10929 10931 10932 10930 10930 10933 10935 10937 10943 10947 10950 10951 10951 10954 10956 10956 10958 10960 10960 10961 10962 10964 10967 10969 10970 10970 10971 10971 10972 10973 10973 10972 10972 10973 10973 10974
10816 10814 10813 10813 10814 10813 10812 10813 10814 10813 10812 10814 10817 10818 10821 10823 10825 10823 10817 10823 10834 10838 10841 10844 10846 10847 10844 10844 10850 10858 10865 10871 10872 10872 10870 10870 10875 10882 10885 10887 10891 10895 10899 10903 10904 10906 10908 10910 10915 10920 10921 10919 10920 10922 10924 10925 10928 10932 10933 10936 10940 10944 10947 10949 10950 10952 10954 10954 10956 10958 10958 10959 10960 10961 10964 10966 10968 10969 10969 10970 10970 10971 10972 10972 10972 10972 10972 10973
10805 10803 10801 10800 10802 10801 10799 10801 10802 10801 10800 10801 10803 10805 10808 10809 10812 10810 10804 10809 10821 10825 10829 10833 10835 10835 10834 10834 10842 10851 10855 10859 10863 10864 10862 10860 10865 10873 10876 10881 10886 10889 10893 10894 10894 10899 10903 10908 10914 10912 10908 10909 10913 10917 10920 10923 10927 10930 10931 10933 10936 10939 10942 10944 10947 10949 10951 10952 10953 10955 10957 10957 10956 10958 10962 10964 10966 10967 10968 10969 10969 10970 10971 10971 10971 10971 10972 10972
10794 10793 10790 10788 10789 10789 10787 10788 10788 10788 10787 10787 10789 10790 10793 10795 10797 10797 10791 10793 10805 10812 10816 10820 10823 10824 10824 10824 10833 10843 10845 10847 10852 10852 10851 10851 10855 10863 10868 10874 10879 10882 10883 10882 10886 10893 10900 10908 10907 10898 10897 10903 10909 10913 10916 10919 10923 10926 10927 10928 10931 10933 10935 10939 10943 10946 10948 10948 10949 10953 10956 10955 10953 10956 10960 10961 10963 10965 10967 10968 10968 10968 10969 10970 10971 10971 10971 10972
10783 10781 10779 10775 10776 10777 10775 10775 10775 10774 10773 10772 10774 10775 10777 10780 10782 10783 10780 10777 10786 10797 10802 10805 10809 10812 10815 10814 10821 10832 10836 10837 10837 10839 10842 10843 10847 10853 10856 10863 10871 10872 10869 10873 10883 10889 10898 10902 10890 10883 10890 10899 10904 10908 10911 10914 10918 10922 10923 10925 10926 10927 10929 10934 10938 10941 10944 10944 10944 10949 10953 10953 10952 10954 10957 10959 10961 10964 10966 10967 10967 10967 10968 10969 10970 10970 10971 10971
10771 10769 10767 10762 10762 10764 10762 10761 10761 10760 10759 10758 10758 10758 10760 10763 10765 10768 10769 10764 10768 10780 10785 10789 10794 10799 10804 10805 10808 10818 10825 10826 10822 10824 10830 10834 10837 10840 10844 10852 10860 10861 10860 10870 10878 10883 10891 10884 10870 10876 10889 10894 10898 10902 10905 10909 10914 10917 10919 10920 10920 10920 10924 10927 10930 10936 10939 10939 10940 10946 10950 10951 10952 10953 10955 10957 10959 10962 10963 10964 10965 10965 10966 10968 10969 10969 10970 10971
10759 10756 10755 10750 10747 10749 10748 10745 10744 10744 10745 10743 10741 10741 10743 10745 10748 10751 10753 10752 10754 10762 10766 10772 10780 10785 10791 10793 10796 10804 10811 10813 10809 10808 10816 10824 10826 10829 10835 10841 10846 10851 10856 10863 10866 10874 10879 10866 10862 10878 10886 10886 10892 10896 10901 10906 10909 10911 10913 10913 10911 10914 10918 10918 10924 10932 10935 10935 10937 10943 10948 10951 10952 10951 10951 10952 10956 10959 10960 10961 10962 10964 10965 10966 10967 10968 10969 10970
10747 10743 10741 10738 10733 10733 10733 10729 10727 10727 10728 10726 10724 10725 10725 10727 10730 10733 10737 10738 10739 10745 10748 10755 10763 10770 10777 10780 10784 10791 10795 10797 10793 10792 10804 10813 10815 10820 10825 10829 10837 10844 10848 10852 10857 10866 10866 10855 10862 10876 10877 10880 10888 10892 10898 10900 10902 10906 10907 10904 10902 10907 10910 10913 10922 10929 10931 10932 10934 10938 10944 10948 10949 10948 10946 10949 10953 10955 10957 10958 10959 10962 10963 10964 10966 10966 10967 10968
10734 10729 10726 10725 10721 10718 10717 10713 10711 10709 10708 10708 10708 10708 10707 10709 10711 10715 10720 10721 10723 10729 10733 10739 10745 10752 10761 10766 10772 10777 10780 10782 10778 10779 10794 10803 10805 10811 10815 10821 10831 10835 10837 10841 10848 10856 10855 10849 10860 10870 10871 10877 10883 10887 10892 10893 10897 10900 10896 10891 10895 10902 10906 10910 10919 10925 10928 10928 10929 10934 10940 10943 10947 10946 10944 10946 10950 10952 10953 10955 10956 10959 10961 10961 10963 10964 10965 10966
10721 10716 10710 10710 10708 10704 10700 10696 10694 10692 10689 10689 10690 10690 10690 10692 10693 10697 10703 10705 10709 10714 10717 10724 10728 10733 10742 10750 10758 10764 10765 10769 10767 10769 10784 10794 10797 10803 10809 10815 10822 10825 10827 10829 10840 10853 10848 10844 10857 10865 10866 10871 10878 10883 10883 10884 10890 10887 10881 10884 10892 10897 10900 10905 10913 10921 10923 10920 10924 10933 10936 10939 10945 10945 10943 10944 10946 10948 10950 10951 10953 10956 10958 10959 10961 10962 10963 10965
10708 10702 10696 10694 10693 10689 10685 10680 10677 10675 10672 10671 10672 10672 10672 10674 10677 10681 10685 10689 10696 10699 10700 10707 10711 10716 10725 10731 10742 10750 10753 10757 10755 10756 10771 10781 10785 10790 10799 10806 10810 10814 10814 10819 10838 10845 10835 10837 10851 10853 10855 10865 10872 10871 10868 10875 10880 10873 10872 10881 10886 10888 10892 10899 10908 10915 10915 10916 10924 10932 10933 10936 10941 10942 10941 10942 10944 10945 10945 10947 10949 10952 10955 10957 10959 10960 10961 10963
10694 10689 10682 10679 10677 10673 10670 10666 10662 10658 10656 10655 10654 10654 10655 10656 10659 10663 10666 10672 10682 10684 10683 10687 10693 10701 10707 10712 10723 10734 10741 10744 10740 10743 10755 10764 10769 10775 10785 10792 10793 10796 10800 10811 10828 10827 10821 10831 10837 10839 10849 10859 10860 10856 10858 10870 10871 10862 10867 10877 10878 10881 10887 10895 10906 10909 10909 10916 10924 10927 10929 10933 10936 10938 10941 10942 10941 10938 10938 10942 10946 10948 10952 10955 10957 10958 10959 10960
10679 10674 10669 10665 10661 10657 10655 10652 10648 10644 10641 10638 10637 10637 10637 10638 10641 10644 10647 10654 10664 10668 10667 10669 10676 10684 10689 10695 10707 10715 10722 10728 10728 10730 10737 10746 10754 10762 10771 10774 10774 10781 10789 10800 10812 10813 10814 10821 10823 10833 10845 10849 10847 10846 10853 10863 10859 10853 10863 10871 10872 10876 10882 10892 10902 10903 10907 10918 10923 10922 10925 10929 10932 10935 10938 10938 10933 10931 10934 10940 10943 10946 10949 10952 10954 10956 10957 10958
10665 10660 10655 10651 10646 10642 10639 10636 10633 10630 10627 10623 10621 10620 10620 10621 10623 10625 10630 10636 10643 10650 10652 10652 10657 10665 10671 10679 10688 10694 10702 10710 10714 10717 10720 10728 10738 10745 10752 10753 10755 10767 10777 10788 10801 10803 10804 10809 10816 10830 10837 10836 10838 10838 10846 10853 10849 10849 10860 10866 10868 10870 10876 10888 10896 10899 10910 10920 10918 10916 10920 10925 10929 10931 10932 10931 10929 10930 10933 10936 10940 10943 10945 10949 10951 10954 10955 10955
10652 10646 10641 10637 10632 10628 10625 10620 10617 10614 10612 10609 10607 10605 10603 10605 10607 10608 10611 10616 10623 10632 10635 10635 10639 10647 10654 10661 10668 10675 10684 10692 10696 10700 10705 10711 10717 10723 10729 10732 10740 10757 10769 10779 10790 10791 10793 10801 10808 10817 10822 10824 10829 10831 10838 10844 10845 10849 10856 10860 10863 10865 10872 10886 10894 10899 10911 10915 10910 10910 10916 10921 10924 10923 10925 10926 10926 10929 10930 10931 10936 10939 10942 10946 10949 10951 10952 10953
10639 10633 10627 10622 10618 10614 10610 10606 10602 10598 10596 10594 10593 10591 10589 10588 10590 10591 10594 10597 10604 10612 10616 10618 10622 10629 10637 10643 10650 10657 10664 10673 10677 10682 10690 10695 10698 10703 10713 10723 10735 10751 10762 10769 10774 10775 10781 10787 10792 10801 10810 10816 10822 10826 10832 10839 10842 10845 10851 10856 10861 10863 10871 10884 10891 10896 10906 10906 10901 10902 10909 10917 10919 10917 10919 10922 10922 10925 10927 10929 10933 10936 10939 10943 10946 10948 10950 10950
10628 10621 10614 10608 10604 10600 10596 10592 10588 10583 10580 10577 10577 10577 10574 10572 10573 10574 10577 10580 10585 10590 10597 10602 10605 10611 10621 10627 10633 10639 10646 10655 10659 10663 10673 10680 10682 10689 10700 10713 10724 10735 10746 10753 10757 10763 10770 10775 10784 10799 10808 10812 10816 10821 10826 10831 10833 10837 10843 10848 10854 10861 10869 10878 10881 10886 10895 10893 10888 10895 10907 10915 10914 10910 10912 10916 10919 10924 10926 10927 10930 10933 10936 10939 10942 10946 10947 10947
10618 10610 10602 10595 10590 10586 10583 10580 10575 10570 10565 10562 10561 10561 10560 10559 10558 10558 10561 10564 10568 10572 10578 10585 10588 10593 10604 10611 10618 10622 10628 10637 10641 10645 10657 10664 10669 10676 10685 10695 10705 10717 10730 10735 10740 10752 10763 10772 10783 10794 10797 10799 10807 10815 10818 10819 10825 10832 10835 10840 10853 10862 10863 10865 10869 10876 10882 10881 10882 10895 10908 10912 10907 10902 10906 10914 10919 10923 10925 10926 10928 10930 10932 10935 10938 10942 10944 10944
10608 10601 10592 10583 10577 10573 10571 10566 10561 10557 10552 10549 10548 10547 10546 10546 10545 10545 10547 10549 10553 10556 10561 10567 10572 10577 10586 10595 10603 10605 10609 10618 10623 10628 10638 10649 10656 10662 10669 10679 10688 10701 10714 10719 10727 10741 10756 10768 10775 10779 10783 10791 10802 10809 10808 10813 10824 10827 10829 10843 10857 10853 10846 10851 10860 10868 10874 10877 10884 10896 10903 10905 10901 10898 10903 10912 10917 10920 10922 10925 10926 10926 10927 10930 10934 10937 10941 10941
10596 10591 10581 10572 10565 10562 10559 10553 10548 10545 10541 10538 10536 10534 10533 10533 10533 10533 10534 10536 10539 10541 10544 10550 10557 10563 10570 10578 10585 10588 10591 10600 10607 10610 10618 10632 10641 10648 10656 10663 10671 10684 10697 10706 10717 10731 10749 10762 10763 10768 10781 10789 10795 10797 10798 10806 10814 10816 10826 10842 10842 10830 10834 10848 10856 10862 10871 10878 10884 10890 10896 10901 10899 10895 10899 10908 10914 10917 10920 10922 10923 10924 10924 10925 10928 10932 10936 10937
10585 10581 10572 10562 10555 10552 10548 10543 10538 10534 10530 10527 10525 10523 10521 10521 10522 10522 10521 10522 10525 10526 10529 10535 10542 10549 10556 10561 10567 10572 10575 10582 10590 10592 10599 10613 10624 10633 10642 10648 10657 10670 10682 10694 10707 10723 10743 10753 10751 10760 10774 10777 10778 10781 10784 10793 10801 10810 10823 10827 10820 10821 10836 10847 10852 10860 10870 10876 10879 10883 10890 10896 10895 10890 10893 10902 10908 10912 10915 10918 10919 10921 10920 10920 10922 10926 10930 10932
10574 10571 10563 10554 10547 10543 10538 10534 10529 10525 10521 10517 10515 10514 10511 10509 10510 10510 10509 10509 10512 10513 10515 10521 10528 10534 10540 10545 10550 10556 10560 10566 10573 10576 10581 10593 10605 10618 10629 10635 10643 10655 10667 10682 10698 10714 10732 10741 10739 10747 10759 10761 10761 10765 10775 10789 10799 10807 10812 10811 10812 10823 10834 10839 10845 10853 10860 10866 10871 10874 10882 10891 10890 10883 10885 10895 10902 10905 10910 10913 10915 10917 10915 10914 10915 10920 10924 10927
10564 10560 10553 10544 10538 10534 10529 10524 10520 10516 10512 10509 10507 10504 10501 10498 10498 10499 10498 10498 10500 10501 10502 10509 10515 10519 10525 10530 10534 10540 10545 10551 10556 10560 10566 10576 10589 10602 10614 10622 10630 10641 10654 10671 10686 10701 10719 10728 10728 10733 10745 10750 10749 10759 10779 10791 10796 10801 10806 10809 10816 10825 10830 10833 10838 10844 10851 10859 10865 10867 10876 10885 10881 10874 10879 10889 10894 10899 10905 10908 10910 10913 10911 10909 10910 10914 10918 10921
10554 10551 10543 10534 10528 10524 10520 10515 10510 10506 10503 10501 10498 10494 10491 10489 10487 10487 10488 10488 10488 10488 10490 10497 10503 10506 10510 10515 10519 10525 10531 10536 10541 10545 10552 10561 10573 10585 10597 10607 10618 10630 10644 10658 10674 10690 10705 10716 10717 10720 10733 10741 10743 10758 10776 10779 10782 10792 10799 10805 10812 10819 10822 10824 10833 10843 10849 10856 10860 10863 10872 10877 10870 10867 10875 10883 10888 10894 10899 10903 10906 10908 10908 10905 10905 10908 10912 10915
10544 10541 10536 10527 10520 10516 10511 10507 10502 10497 10494 10492 10489 10485 10482 10480 10478 10477 10477 10477 10477 10477 10478 10485 10491 10495 10498 10501 10506 10512 10517 10522 10527 10531 10537 10547 10557 10569 10581 10593 10605 10619 10632 10645 10660 10676 10692 10704 10707 10709 10723 10735 10741 10753 10763 10765 10772 10782 10789 10795 10800 10804 10809 10818 10833 10842 10844 10850 10855 10858 10865 10866 10862 10865 10872 10877 10883 10888 10892 10897 10901 10902 10903 10901 10900 10903 10907 10910
10534 10532 10529 10522 10515 10510 10504 10499 10494 10489 10486 10483 10479 10476 10473 10471 10469 10468 10468 10467 10467 10466 10468 10474 10480 10483 10485 10488 10493 10500 10504 10508 10513 10518 10525 10534 10544 10556 10567 10579 10592 10607 10621 10632 10646 10663 10680 10693 10698 10702 10715 10727 10733 10740 10747 10755 10765 10771 10778 10785 10788 10795 10806 10817 10828 10830 10831 10838 10844 10849 10855 10855 10857 10863 10867 10871 10877 10881 10886 10893 10896 10896 10897 10896 10895 10897 10901 10906
10527 10523 10521 10515 10510 10506 10499 10492 10485 10481 10478 10475 10471 10468 10464 10462 10460 10459 10458 10458 10457 10456 10458 10464 10469 10472 10474 10476 10481 10488 10492 10495 10501 10507 10513 10522 10532 10543 10555 10567 10580 10595 10610 10621 10633 10650 10667 10681 10689 10692 10700 10710 10714 10719 10729 10741 10749 10755 10765 10774 10782 10793 10803 10809 10815 10816 10821 10830 10835 10841 10845 10846 10851 10857 10860 10864 10870 10874 10880 10886 10889 10890 10890 10889 10889 10890 10894 10900
10523 10517 10513 10508 10504 10501 10496 10489 10481 10474 10470 10467 10464 10461 10457 10454 10452 10450 10449 10449 10449 10448 10449 10454 10458 10461 10463 10465 10469 10475 10480 10484 10489 10495 10502 10510 10520 10532 10543 10554 10568 10583 10598 10610 10622 10638 10655 10670 10679 10680 10685 10694 10700 10708 10719 10729 10736 10744 10756 10767 10777 10786 10793 10800 10805 10810 10820 10827 10831 10837 10839 10839 10847 10852 10854 10859 10865 10869 10874 10879 10882 10883 10883 10883 10883 10883 10887 10894
10520 10515 10508 10502 10497 10494 10491 10486 10479 10472 10465 10460 10456 10454 10450 10447 10444 10442 10441 10440 10440 10440 10441 10444 10447 10449 10450 10453 10458 10463 10468 10472 10476 10483 10491 10499 10509 10520 10531 10542 10556 10571 10586 10598 10612 10628 10644 10659 10668 10670 10677 10688 10696 10706 10716 10724 10734 10745 10755 10764 10771 10777 10784 10791 10797 10807 10817 10820 10824 10832 10831 10831 10842 10847 10849 10855 10860 10863 10869 10873 10875 10877 10877 10877 10877 10878 10882 10888
10514 10511 10507 10500 10493 10488 10484 10481 10475 10468 10462 10456 10450 10447 10444 10440 10437 10435 10433 10432 10431 10432 10433 10435 10437 10439 10441 10444 10449 10453 10457 10460 10465 10472 10481 10489 10498 10509 10519 10530 10544 10560 10574 10587 10603 10618 10632 10645 10657 10662 10669 10680 10691 10701 10710 10719 10731 10742 10749 10757 10764 10769 10776 10783 10793 10805 10810 10811 10820 10826 10821 10825 10837 10841 10843 10849 10854 10858 10863 10866 10869 10871 10872 10872 10872 10874 10877 10883
10509 10506 10503 10499 10491 10484 10478 10474 10469 10463 10457 10452 10447 10441 10437 10434 10431 10428 10426 10426 10424 10424 10424 10426 10429 10431 10433 10436 10440 10445 10448 10451 10455 10463 10472 10479 10489 10499 10508 10519 10533 10547 10562 10577 10593 10608 10620 10633 10647 10654 10660 10672 10684 10693 10700 10709 10720 10729 10737 10746 10754 10760 10769 10780 10791 10798 10800 10807 10816 10815 10812 10820 10829 10832 10836 10843 10849 10855 10859 10861 10864 10866 10866 10867 10868 10871 10874 10880
10504 10500 10497 10493 10488 10481 10474 10469 10464 10458 10453 10447 10443 10438 10432 10428 10425 10422 10420 10419 10418 10417 10416 10418 10421 10422 10424 10428 10431 10435 10439 10442 10448 10456 10463 10471 10480 10489 10499 10509 10521 10535 10552 10568 10583 10597 10609 10623 10637 10646 10653 10664 10673 10679 10687 10697 10707 10717 10729 10739 10746 10754 10764 10774 10782 10786 10792 10801 10804 10800 10804 10814 10820 10825 10832 10837 10844 10851 10854 10856 10859 10860 10861 10863 10865 10868 10871 10877
10500 10495 10491 10487 10482 10476 10470 10464 10459 10454 10448 10443 10438 10433 10428 10423 10419 10417 10415 10412 10411 10411 10410 10411 10413 10415 10417 10420 10422 10425 10429 10434 10441 10449 10456 10463 10471 10480 10490 10500 10511 10525 10542 10559 10573 10587 10598 10612 10628 10637 10645 10653 10659 10665 10677 10688 10697 10709 10724 10735 10741 10747 10755 10762 10767 10773 10783 10790 10790 10792 10801 10808 10814 10822 10827 10832 10840 10846 10848 10851 10853 10853 10854 10857 10860 10864 10868 10872
10496 10491 10487 10483 10478 10472 10467 10460 10454 10449 10444 10439 10433 10428 10424 10419 10414 10412 10410 10407 10405 10405 10405 10405 10406 10409 10410 10412 10414 10416 10421 10427 10434 10442 10449 10456 10463 10472 10481 10490 10501 10516 10533 10549 10563 10576 10588 10603 10618 10627 10634 10640 10646 10655 10668 10678 10688 10704 10719 10727 10731 10737 10742 10748 10755 10765 10776 10782 10783 10787 10795 10801 10809 10817 10822 10828 10835 10840 10843 10846 10847 10847 10849 10851 10855 10859 10863 10867
10492 10488 10483 10479 10475 10469 10464 10457 10451 10446 10440 10434 10429 10423 10419 10415 10411 10407 10405 10403 10400 10399 10400 10400 10400 10402 10403 10404 10406 10410 10415 10422 10429 10435 10442 10449 10456 10466 10474 10482 10493 10508 10525 10541 10554 10567 10579 10594 10608 10616 10623 10630 10636 10645 10657 10667 10680 10695 10707 10714 10718 10724 10731 10740 10752 10762 10770 10773 10775 10780 10787 10797 10806 10813 10818 10824 10830 10834 10838 10840 10841 10842 10843 10846 10850 10854 10858 10862